Location: Cantaing
(50.1487°N, 3.1675°E)
Time: 09:27:55
(UTC+00:00)

Cosmos 1943 Rocket - Pass Details

Date: 14 January 2026
Orbit: 811 x 842 km, 71.0° (Epoch: 17 February)

Event Time Altitude Azimuth Distance (km) Brightness Sun altitude
Rises 05:39:07 0° 199° (SSW) 3,325 5.2 -18.9°
Reaches altitude 10° 05:41:32 10° 197° (SSW) 2,395 4.5 -18.5°
Maximum altitude 05:46:58 70° 115° (ESE) 866 2.4 -17.6°
Drops below altitude 10° 05:52:26 10° 33° (NNE) 2,409 4.8 -16.8°
Sets 05:54:52 0° 31° (NNE) 3,347 5.5 -16.4°
